Location: St Paul
(33.9360°N, 83.4200°W)
Time: 17:32:30
(UTC-05:00)

Cosmos 2369 - Pass Details

Date: 06 October 2017
Orbit: 838 x 858 km, 71.0° (Epoch: 12 December)

Event Time Altitude Azimuth Distance (km) Brightness Sun altitude
Rises 19:58:57 0° 336° (NNW) 3,404 7.2 -10.8°
Reaches altitude 10° 20:01:24 10° 335° (NNW) 2,469 6.5 -11.3°
Maximum altitude 20:07:03 73° 252° (WSW) 888 4.0 -12.5°
Drops below altitude 10° 20:12:42 10° 168° (SSE) 2,468 6.0 -13.7°
Sets 20:15:09 0° 166° (SSE) 3,403 6.7 -14.2°
